#timestamp,LO_Frequency,Hit,StdDev 
1580990415.6,286047001.7,N
1580990435.4,286046999.9,N
1580990455.3,286047000.4,N
1580990475.1,286047002.4,N
1580990495.8,286047004.2,N
1580990515.7,286047004.4,N
1580990535.5,286047002.6,N
1580990555.4,286047000.8,N
1580990575.2,286046998.4,N
1580990595.0,286046999.5,N
1580990595.9,286046999.5,N
1580990615.8,286047000.9,N
1580990635.6,286047000.3,N
1580990655.5,286046999.9,N
1580990675.3,286047000.7,N
1580990695.1,286046998.8,N
1580990715.9,286046999.5,N
1580990735.7,286046998.8,N
1580990755.5,286046998.2,N
1580990775.4,286046998.7,N
1580990795.2,286047000.3,N
1580990815.1,286047001.2,N
1580990816.0,286047001.2,N
1580990835.8,286046998.3,N
1580990855.6,286046996.7,N
1580990875.5,286047000.6,N
1580990895.3,286047000.8,N
1580990915.1,286047000.8,N
1580990935.9,286047000.8,N
1580990955.7,286047000.1,N
1580990975.6,286047001.5,N
1580990995.4,286047002.2,N
1580991015.2,286047002.1,N
1580991035.1,286047001.4,N
1580991036.0,286047001.4,N
1580991055.8,286047002.3,N
1580991075.7,286046999.0,N
1580991095.5,286046996.7,N
1580991115.3,286046996.6,N
1580991135.2,286046999.9,N
1580991155.9,286047000.0,N
1580991175.7,286047000.9,N
1580991195.6,286047001.0,N
1580991215.4,286047002.2,N
1580991235.3,286047002.3,N
1580991255.1,286047000.2,N
1580991256.0,286047000.2,N
1580991275.8,286047000.1,N
1580991295.7,286047002.6,N
1580991315.5,286047000.3,N
1580991335.3,286047000.8,N
1580991355.2,286047002.7,N
1580991375.0,286046999.7,N
1580991375.9,286046999.7,N
1580991395.8,286046998.1,N
1580991415.6,286046999.0,N
1580991435.4,286046998.9,N
1580991455.3,286046996.7,N
1580991475.1,286046998.2,N
1580991495.8,286047000.8,N
1580991515.7,286046998.5,N
1580991535.5,286046999.0,N
1580991555.4,286046998.8,N
1580991575.2,286046996.9,N
1580991595.0,286046998.9,N
1580991595.9,286046998.9,N
1580991615.8,286046998.8,N
1580991635.6,286046996.6,N
1580991655.5,286046995.4,N
1580991675.3,286046995.1,N
1580991695.1,286046997.7,N
1580991715.9,286046999.2,N
1580991735.7,286047001.1,N
1580991755.5,286047000.8,N
1580991775.4,286047000.3,N
1580991795.2,286046998.2,N
1580991815.1,286047000.9,N
1580991816.0,286047000.9,N
1580991835.8,286047000.2,N
1580991855.6,286047002.4,N
1580991875.5,286046999.9,N
1580991895.3,286047000.2,N
1580991915.2,286047001.6,N
1580991935.9,286047000.3,N
1580991955.7,286047002.4,N
1580991975.6,286047002.3,N
1580991995.4,286047001.6,N
1580992015.2,286047001.1,N
1580992035.1,286046998.1,N
1580992036.0,286046998.1,N
1580992055.8,286047001.2,N
1580992075.7,286047000.2,N
1580992095.5,286047001.2,N
1580992115.3,286047000.9,N
1580992135.2,286047001.0,N
1580992155.0,286046998.9,N
1580992155.9,286046998.9,N
1580992175.7,286046998.7,N
1580992195.6,286047000.9,N
1580992215.4,286047002.7,N
1580992235.4,286046999.8,N
1580992255.2,286047000.1,N
1580992275.1,286047001.2,N
1580992276.0,286047001.2,N
1580992295.8,286047000.4,N
1580992315.7,286047000.4,N
1580992335.5,286047002.4,N
1580992355.3,286047000.4,N
1580992375.2,286046998.2,N
1580992395.0,286046998.4,N
1580992395.9,286046998.4,N
1580992415.8,286047000.5,N
1580992435.6,286047001.1,N
1580992455.5,286047002.3,N
1580992475.3,286047002.1,N
1580992495.1,286047002.1,N
1580992515.9,286047004.3,Y
1580992535.7,286047001.9,P
1580992555.5,286047001.8,N
1580992575.4,286047002.2,P
1580992595.2,286047000.3,N
1580992615.1,286047000.5,N
1580992616.0,286047000.5,N
1580992635.8,286047000.5,N
1580992655.6,286046998.1,N
1580992675.5,286046998.1,N
1580992695.3,286046998.5,N
1580992715.1,286047002.8,N
1580992735.9,286047000.3,N
1580992755.7,286047000.5,N
1580992775.6,286046999.3,N
1580992795.4,286047000.6,N
1580992815.2,286047000.0,N
1580992835.1,286047000.9,N
1580992836.0,286047000.9,N
1580992855.8,286047000.6,N
1580992875.6,286047000.0,N
1580992895.5,286047002.8,N
1580992915.3,286047002.7,N
1580992935.2,286047004.1,Y
1580992955.9,286047001.3,P
1580992975.7,286047001.6,P
1580992995.6,286047002.4,P
1580993015.4,286047000.1,N
1580993035.3,286046999.7,N
1580993055.1,286047000.2,N
1580993056.0,286047000.2,N
1580993075.8,286047002.2,N
1580993095.7,286047001.8,N
1580993115.5,286047002.2,N
1580993135.3,286047000.9,N
1580993155.2,286047000.6,N
1580993175.0,286047002.7,Y
1580993175.9,286047002.7,P
1580993195.8,286047002.8,P
1580993215.6,286046999.8,N
1580993235.4,286047000.2,N
1580993255.3,286047002.2,N
1580993275.1,286047000.7,N
1580993295.9,286047001.0,N
1580993315.7,286046998.5,N
1580993335.5,286046998.8,N
1580993355.4,286046998.4,N
1580993375.2,286047000.9,N
1580993395.0,286047001.2,N
1580993395.9,286047001.2,N
1580993415.8,286046998.3,N
1580993435.6,286046998.3,N
1580993455.5,286047000.7,N
1580993475.3,286046998.8,N
1580993495.1,286046996.8,N
1580993515.9,286046997.9,N
1580993535.7,286046997.8,N
1580993555.5,286046998.6,N
1580993575.4,286046997.1,N
1580993595.2,286046999.5,N
1580993615.1,286046999.1,N
1580993616.0,286046999.1,N
1580993635.8,286046997.2,N
1580993655.6,286046996.5,N
1580993675.5,286046998.4,N
1580993695.3,286046998.9,N
1580993715.1,286046996.7,N
1580993735.9,286046995.8,N
1580993755.7,286046997.6,N
1580993775.6,286046994.9,Y
1580993795.4,286046996.9,P
1580993815.2,286046998.0,N
1580993835.1,286046995.3,P
1580993836.0,286046995.3,Y
1580993855.8,286046998.6,P
1580993875.7,286046998.1,N
1580993895.5,286046998.5,N
1580993915.3,286046998.6,N
1580993935.2,286047001.2,N
1580993955.0,286046996.7,N
1580993955.9,286046996.7,N
1580993975.8,286046995.7,Y
1580993995.6,286046995.2,P
